This is the latest recevied weather packets stored in our database for station/object SV1TGC. If no packets are shown the sender has not sent any weather packets the latest 10 day(s).
| Time | Temp. | Humidity | Pressure | Rain* | Wind** | Luminosity | Snow |
|---|---|---|---|---|---|---|---|
| 1777505735 | 13.33° C | 64% | 1015.6 hPa | 0 mm | - | - | - |
| 1777504834 | 13.33° C | 64% | 1015.7 hPa | 0 mm | - | - | - |
| 1777504235 | 13.33° C | 63% | 1015.9 hPa | 0 mm | - | - | - |
| 1777503654 | 13.89° C | 62% | 1015.9 hPa | 0 mm | - | - | - |
| 1777501534 | 13.89° C | 58% | 1015.9 hPa | 0 mm | - | - | - |
| 1777500948 | 14.44° C | 58% | 1016 hPa | 0 mm | - | - | - |
| 1777500050 | 14.44° C | 58% | 1016 hPa | 0 mm | - | - | - |
| 1777497350 | 14.44° C | 59% | 1016 hPa | 0 mm | - | - | - |
| 1777494654 | 15° C | 59% | 1015.9 hPa | 0 mm | - | - | - |
| 1777493134 | 15.56° C | 59% | 1016.1 hPa | 0 mm | - | - | - |
| 1777491946 | 15.56° C | 56% | 1016.1 hPa | 0 mm | - | - | - |
| 1777489250 | 16.11° C | 63% | 1016.2 hPa | 0 mm | - | - | - |
| 1777488637 | 16.11° C | 64% | 1016.1 hPa | 0 mm | - | - | - |
| 1777487135 | 16.67° C | 65% | 1015.9 hPa | 0 mm | - | - | - |
| 1777485934 | 17.78° C | 65% | 1015.7 hPa | 0 mm | - | - | - |
| 1777485655 | 17.78° C | 65% | 1015.7 hPa | 0 mm | - | - | - |
| 1777485335 | 17.78° C | 64% | 1015.8 hPa | 0 mm | - | - | - |
| 1777483858 | 18.89° C | 61% | 1015.5 hPa | 0 mm | - | - | - |
| 1777483534 | 18.89° C | 61% | 1015.4 hPa | 0 mm | - | - | - |
| 1777482944 | 19.44° C | 61% | 1015.5 hPa | 0 mm | - | - | - |
| 1777480252 | 19.44° C | 58% | 1015.5 hPa | 0 mm | - | - | - |
| 1777479370 | 20° C | 55% | 1015.6 hPa | 0 mm | - | - | - |
| 1777478458 | 20° C | 57% | 1015.9 hPa | 0 mm | - | - | - |
| 1777476650 | 20° C | 59% | 1015.7 hPa | 0 mm | - | - | - |
| 1777474846 | 20.56° C | 48% | 1015.9 hPa | 0 mm | - | - | - |
* Rain latest hour (hover to see other rain measurements)
** Current wind speed in m/s (hover to see current wind gust speed)